This is the latest recevied weather packets stored in our database for station/object 4S6DRJ-13. If no packets are shown the sender has not sent any weather packets the latest 10 day(s).
| Time | Temp. | Humidity | Pressure | Rain* | Wind** | Luminosity | Snow |
|---|---|---|---|---|---|---|---|
| 1787933319 | 27.78° C | 84% | 1011 hPa | 0 mm | 1.34 m/s, 231° | 0 W/m² | - |
| 1787933258 | 27.78° C | 84% | 1010.7 hPa | 0 mm | 0.45 m/s, 218° | 0 W/m² | - |
| 1787933197 | 27.78° C | 84% | 1011 hPa | 0 mm | 0.89 m/s, 262° | 0 W/m² | - |
| 1787933136 | 27.78° C | 85% | 1010.9 hPa | 0 mm | 1.79 m/s, 216° | 0 W/m² | - |
| 1787933075 | 27.78° C | 85% | 1011 hPa | 0 mm | 0.45 m/s, 211° | 0 W/m² | - |
| 1787933015 | 28.33° C | 85% | 1011 hPa | 0 mm | 1.34 m/s, 221° | 0 W/m² | - |
| 1787932953 | 28.33° C | 85% | 1011 hPa | 0 mm | 0.45 m/s, 201° | 0 W/m² | - |
| 1787932892 | 28.33° C | 85% | 1010.9 hPa | 0 mm | 0.45 m/s, 284° | 0 W/m² | - |
| 1787932831 | 28.33° C | 85% | 1010.9 hPa | 0 mm | 0.45 m/s, 112° | 0 W/m² | - |
| 1787932770 | 28.33° C | 85% | 1010.8 hPa | 0 mm | 0.89 m/s, 195° | 0 W/m² | - |
| 1787932709 | 28.33° C | 85% | 1010.9 hPa | 0 mm | 0.89 m/s, 216° | 0 W/m² | - |
| 1787932648 | 28.33° C | 85% | 1010.6 hPa | 0 mm | 0.89 m/s, 220° | 0 W/m² | - |
| 1787932587 | 27.78° C | 85% | 1010.8 hPa | 0 mm | 1.34 m/s, 204° | 0 W/m² | - |
| 1787932526 | 28.33° C | 85% | 1010.9 hPa | 0 mm | 0.89 m/s, 174° | 0 W/m² | - |
| 1787932465 | 28.33° C | 85% | 1010.9 hPa | 0 mm | 1.79 m/s, 269° | 0 W/m² | - |
| 1787932404 | 28.33° C | 85% | 1010.8 hPa | 0 mm | 1.34 m/s, 212° | 0 W/m² | - |
| 1787932343 | 28.33° C | 85% | 1010.7 hPa | 0 mm | 2.24 m/s, 233° | 0 W/m² | - |
| 1787932282 | 28.33° C | 85% | 1010.5 hPa | 0 mm | 0.89 m/s, 229° | 0 W/m² | - |
| 1787932222 | 28.33° C | 85% | 1010.7 hPa | 0 mm | 1.34 m/s, 242° | 0 W/m² | - |
| 1787932161 | 28.33° C | 85% | 1010.6 hPa | 0 mm | 0.45 m/s, 273° | 0 W/m² | - |
| 1787932099 | 28.33° C | 85% | 1010.7 hPa | 0 mm | 1.79 m/s, 238° | 0 W/m² | - |
| 1787932038 | 28.33° C | 85% | 1010.6 hPa | 0 mm | 1.34 m/s, 250° | 0 W/m² | - |
| 1787931985 | 28.33° C | 85% | 1010.6 hPa | 0 mm | 1.34 m/s, 244° | 0 W/m² | - |
| 1787931916 | 28.33° C | 85% | 1010.6 hPa | 0 mm | 1.79 m/s, 206° | 0 W/m² | - |
| 1787931855 | 28.33° C | 85% | 1010.8 hPa | 0 mm | 1.79 m/s, 199° | 0 W/m² | - |
* Rain latest hour (hover to see other rain measurements)
** Current wind speed in m/s (hover to see current wind gust speed)